Theta_e
340 341 341 340 341 340 341 341 340 339 339 338 338 338 338 337 336 336 335 334 334 334 333 332 332 333 332 333 332 331 330 330 330 330 329 328 327 327 329 330 331 330
338 339 340 340 340 340 341 340 340 340 339 339 339 339 340 339 337 336 335 335 334 334 333 332 332 333 332 333 333 332 331 331 330 329 328 327 327 328 330 331 330 330
337 337 339 339 340 340 340 340 340 340 339 339 340 340 341 340 339 337 335 334 334 333 334 332 332 333 333 333 333 332 332 332 331 329 328 328 329 330 331 331 330 329
336 336 338 339 339 339 339 339 340 340 339 340 340 340 340 340 340 338 336 334 334 333 334 334 333 333 333 333 332 331 332 332 331 329 329 329 330 330 331 331 331 330
336 336 336 337 338 338 339 339 339 339 339 340 340 339 340 340 340 339 337 336 334 333 334 334 334 333 333 332 331 331 331 331 330 329 330 330 331 330 330 332 333 331
336 336 335 335 336 337 338 338 338 337 338 339 339 339 340 340 340 339 338 336 335 334 334 335 334 333 333 332 331 331 331 330 329 330 330 330 330 331 331 332 333 332
335 336 336 335 336 336 336 336 336 336 337 338 339 339 339 339 339 340 339 337 336 335 334 334 334 333 333 332 332 332 331 331 330 330 329 329 330 330 331 333 333 332
334 335 336 336 336 335 334 334 334 336 336 336 338 339 339 339 339 339 339 338 337 336 335 335 335 334 332 332 332 332 332 331 330 328 328 329 330 330 331 332 333 333
332 334 335 335 335 336 335 334 334 334 333 333 337 339 339 338 339 339 339 338 338 337 336 336 335 334 333 332 333 332 331 330 329 329 328 329 330 330 331 332 333 334
331 332 334 335 334 335 335 334 335 334 332 332 334 336 337 337 338 338 338 338 338 337 336 336 335 334 333 332 333 331 330 329 330 329 329 329 329 331 332 332 333 333
332 333 335 335 334 333 333 333 333 333 334 334 332 332 335 337 337 337 338 338 338 337 336 335 335 334 333 332 331 330 328 329 330 330 330 329 330 331 331 332 333 332
333 334 334 335 333 332 332 333 334 334 334 335 333 332 334 335 336 336 337 338 337 337 336 335 334 334 332 332 331 329 329 330 330 330 330 330 330 331 330 331 332 331
331 332 333 334 333 331 331 334 336 335 335 335 335 335 334 333 335 335 337 338 337 336 336 336 335 334 333 332 331 331 331 331 331 330 331 331 331 331 330 331 332 332
330 330 331 333 334 333 333 334 336 335 334 335 336 335 334 332 333 335 336 337 337 336 336 336 336 335 334 333 332 332 331 331 330 331 331 331 330 330 330 331 332 333
326 329 329 331 332 334 334 334 334 334 334 335 335 335 334 333 333 335 335 335 336 337 336 336 336 335 335 334 333 333 332 332 331 332 332 331 330 330 330 331 332 333
322 326 327 329 331 332 333 334 333 333 332 333 334 335 335 334 332 331 333 335 335 335 335 335 335 335 335 334 334 332 332 332 332 331 331 331 331 331 331 332 334 334
320 323 325 327 328 329 331 332 333 333 332 331 333 334 334 334 331 329 331 334 334 334 334 335 334 334 334 333 334 333 332 332 332 332 332 332 333 332 332 332 334 334
318 318 322 324 325 325 327 329 331 333 332 331 332 333 332 333 333 331 332 333 334 333 332 332 333 334 333 332 333 334 333 333 333 333 333 333 335 335 334 333 333 333
318 317 319 322 323 324 325 327 329 331 332 332 332 332 331 331 332 332 332 333 333 331 330 329 331 331 330 330 331 332 333 334 334 334 334 334 335 335 335 335 334 333
320 320 319 318 319 320 322 325 327 329 330 330 330 330 330 331 332 332 333 333 332 330 329 328 328 327 328 329 329 330 332 334 334 334 334 333 333 334 335 336 335 333
320 320 317 314 314 314 316 322 326 326 327 327 328 328 329 330 332 332 333 333 332 331 329 327 327 326 327 329 330 330 332 334 334 333 332 332 332 333 334 334 335 335
317 318 315 311 312 312 312 317 322 323 325 325 325 326 327 329 330 330 331 332 331 330 328 327 327 327 327 328 330 332 333 334 333 332 333 333 333 333 332 331 333 335
316 316 314 311 313 314 311 310 312 316 322 324 323 324 325 325 326 327 328 328 329 330 331 330 329 328 328 328 329 331 333 333 332 332 332 332 332 332 329 327 328 331
316 315 314 314 315 313 309 307 307 310 314 317 318 320 321 322 324 326 325 325 326 328 330 331 331 329 329 329 329 331 332 332 332 331 331 331 331 330 328 326 328 329
316 315 315 316 314 309 307 308 307 306 308 313 316 318 317 319 323 323 323 324 325 325 327 330 331 330 330 331 331 332 332 332 331 332 332 332 331 329 328 329 330 330
314 314 315 313 310 308 309 310 307 304 307 313 317 318 318 318 318 318 319 321 322 323 325 328 330 331 331 331 332 332 332 331 331 331 331 330 330 329 329 330 330 329
Wind_Speed
27 27 28 29 28 27 26 26 26 25 23 23 24 23 22 22 22 23 24 26 26 25 25 26 25 24 25 25 26 27 27 26 26 26 24 23 23 24 23 23 22 23
28 28 27 28 28 28 28 26 25 25 24 23 22 21 20 20 21 22 24 26 26 25 25 26 25 24 25 26 27 28 27 26 25 24 23 22 23 23 22 22 22 21
27 29 29 28 28 28 28 27 25 24 24 23 22 21 20 19 18 19 22 24 26 25 24 25 25 24 25 27 27 28 28 27 25 23 22 22 22 21 20 21 21 21
28 30 31 29 27 28 27 26 26 25 24 23 22 22 22 21 19 17 18 21 24 25 24 24 25 25 26 26 26 28 28 26 24 23 23 23 22 21 21 21 20 19
31 30 32 31 27 27 26 25 25 25 24 24 23 22 23 22 20 19 17 18 22 25 24 23 23 24 26 27 26 27 27 26 25 24 24 22 21 22 22 20 19 18
32 33 33 32 29 26 26 26 25 23 22 22 22 22 23 22 20 20 19 19 21 24 24 23 23 24 26 27 28 27 27 26 26 25 23 21 21 22 21 20 19 18
30 34 33 31 30 28 26 25 24 21 20 21 22 22 23 22 21 20 19 19 20 23 25 24 23 24 25 27 28 27 27 27 27 25 23 21 21 21 21 20 19 18
27 30 31 30 29 28 27 26 25 22 19 21 24 23 23 23 21 20 19 18 18 20 23 23 22 23 24 26 27 26 26 28 27 25 24 23 22 22 20 20 19 18
26 26 27 29 28 28 27 26 27 24 21 22 24 24 23 23 23 21 20 19 18 20 21 22 22 22 23 25 26 25 26 28 27 25 25 25 24 23 21 20 19 18
21 22 23 24 26 27 27 27 27 26 24 24 24 23 23 23 24 23 21 20 21 21 22 21 21 22 24 26 26 26 26 27 27 26 25 25 24 23 22 21 20 18
15 17 19 20 22 24 26 27 28 27 26 25 23 23 23 22 23 24 23 21 21 22 23 23 22 22 24 25 26 25 25 26 26 25 25 24 23 23 23 22 21 19
15 16 17 19 21 24 26 28 29 29 27 26 24 24 23 21 22 24 23 21 21 21 22 22 23 23 23 23 24 24 24 26 26 24 24 23 22 23 23 21 20 20
18 18 20 22 22 24 27 28 29 29 28 26 25 24 23 22 22 24 24 22 21 22 22 23 22 22 22 23 23 24 25 26 26 24 22 23 23 23 21 20 20 20
15 13 16 21 22 24 25 26 26 27 27 27 26 23 23 24 24 24 23 21 21 23 23 23 22 21 21 23 23 24 25 25 24 23 23 23 24 22 20 20 20 19
21 14 12 15 19 23 25 25 24 25 27 27 25 22 21 21 21 22 20 19 20 22 22 21 22 22 21 22 22 23 24 23 23 23 23 23 23 22 21 21 20 19
26 17 10 9 13 18 24 25 22 23 24 24 22 20 18 17 16 18 21 18 16 18 20 20 22 24 23 21 21 21 22 22 23 23 22 22 21 21 20 20 19 18
27 19 11 6 5 8 14 19 20 20 21 23 23 18 14 14 15 18 21 19 16 16 17 15 16 20 23 24 22 20 20 21 23 22 21 20 21 20 19 19 18 17
27 23 13 3 6 8 8 9 13 16 18 21 21 15 11 12 15 17 19 17 14 14 16 16 14 12 15 20 23 22 21 20 21 20 20 20 21 20 19 18 18 18
20 20 17 8 2 8 9 5 2 8 12 14 13 10 11 12 12 14 16 13 11 11 13 15 14 11 9 14 18 20 21 20 20 20 20 20 20 21 20 18 17 19
13 11 13 11 6 2 7 9 8 6 5 6 5 4 8 12 12 12 12 12 12 11 9 10 12 11 12 12 12 15 18 18 18 17 16 17 18 20 20 18 18 19
17 13 10 8 8 5 1 7 11 11 11 9 8 7 5 5 9 12 12 11 12 11 10 11 11 10 12 13 12 14 17 17 17 16 13 13 15 17 16 16 17 18
19 21 19 13 10 10 8 3 7 10 11 12 12 11 11 9 5 6 8 8 10 12 13 13 12 10 13 14 13 14 16 16 17 17 13 10 10 11 11 11 11 11
18 21 20 13 10 9 9 8 7 8 8 11 12 12 13 12 9 7 4 4 6 11 14 15 14 14 15 16 15 15 14 13 14 16 14 12 11 10 10 10 10 8
19 18 15 14 13 12 11 11 11 10 9 10 13 13 13 10 8 8 7 5 4 6 10 14 15 15 15 15 15 14 13 11 11 13 13 13 13 12 11 11 10 9
19 17 15 16 17 15 13 12 12 11 10 11 14 12 11 11 11 9 7 6 5 6 5 7 11 13 13 13 12 11 11 10 11 12 12 13 12 13 13 13 12 12
17 15 15 17 16 14 12 11 11 11 11 12 13 11 12 13 12 10 8 7 6 6 6 5 6 7 8 8 8 8 9 10 11 12 12 12 13 15 15 14 14 14
Wind_Direction
236 232 227 221 220 220 221 223 223 223 225 226 225 229 233 230 227 223 220 223 226 226 225 227 228 226 225 224 224 224 226 228 229 228 231 237 238 237 236 236 237 240
246 243 236 228 226 223 221 221 223 224 224 227 228 228 233 234 232 228 222 222 225 227 226 225 226 225 222 221 222 223 225 228 227 227 233 238 237 234 234 237 240 243
259 254 246 237 231 228 225 221 221 225 225 226 226 225 229 232 233 233 227 222 224 227 225 223 225 225 222 222 223 223 225 227 227 229 235 235 231 230 232 239 244 246
266 262 253 247 238 230 230 225 220 223 225 225 224 222 225 229 229 231 229 223 223 226 224 222 223 223 222 223 223 221 222 224 225 228 231 230 228 229 231 236 242 244
263 262 255 255 250 237 233 230 223 223 225 226 225 222 223 226 226 226 224 220 221 225 224 222 223 221 219 220 220 217 215 219 221 222 225 225 227 230 230 231 236 239
258 256 252 253 256 249 242 238 229 225 229 230 226 223 222 225 225 222 222 222 221 222 223 223 223 222 219 218 218 216 214 217 220 221 224 225 226 230 229 227 231 234
258 252 248 248 252 252 252 250 238 229 233 235 232 226 222 225 226 223 222 222 219 219 222 223 223 223 222 218 218 218 216 215 217 220 225 226 226 228 226 225 229 231
266 257 249 245 247 247 248 251 244 233 231 235 235 230 223 222 225 223 218 215 213 213 217 221 220 221 222 219 219 219 216 214 216 221 224 223 222 222 221 222 225 225
270 261 248 241 243 244 243 245 243 239 235 233 232 231 226 221 221 223 216 209 208 206 210 217 218 217 217 218 219 219 217 216 217 220 221 220 219 217 216 218 222 220
269 252 239 236 237 238 239 241 242 243 241 237 231 230 231 224 220 225 221 209 205 205 207 212 213 213 214 215 216 218 217 217 217 218 218 218 218 216 215 215 217 217
273 253 242 237 234 235 240 242 242 241 241 239 233 231 234 231 224 224 222 211 205 207 209 209 209 211 212 214 214 214 214 214 215 216 216 216 216 216 217 215 214 218
272 260 253 245 241 242 244 243 241 239 238 237 234 230 232 236 232 225 220 213 207 208 211 210 211 211 212 215 215 211 212 213 215 215 215 216 215 213 216 216 216 219
273 258 254 250 247 247 248 245 240 238 237 234 232 228 226 231 236 229 220 215 209 207 209 210 212 215 215 216 216 211 211 214 215 215 214 214 212 211 213 214 214 215
286 264 255 252 247 244 245 245 240 238 239 235 230 228 225 227 234 234 227 221 213 210 211 210 211 215 213 213 214 213 213 214 213 212 212 210 209 211 213 212 210 212
290 280 265 257 250 241 237 239 239 238 240 239 233 229 226 224 229 238 239 232 220 215 211 209 212 214 210 208 209 210 213 213 209 208 208 206 206 209 210 210 209 211
283 286 290 276 260 247 239 237 239 238 238 240 239 231 223 218 224 240 245 240 233 225 214 210 215 217 212 210 209 210 213 210 207 209 207 204 205 206 205 206 206 206
269 280 303 322 315 280 252 238 236 238 233 232 235 231 218 213 219 230 235 237 242 239 229 225 229 227 220 215 212 210 210 209 209 209 205 202 207 207 205 205 204 204
266 269 274 324 29 1 312 258 236 235 231 225 226 222 205 207 216 217 222 233 239 236 235 236 244 248 233 224 221 214 205 203 206 206 204 204 206 206 203 201 200 201
268 260 249 241 3 16 2 353 219 215 221 217 214 210 203 209 215 211 216 230 232 225 230 233 243 256 235 221 227 221 209 205 208 207 205 207 209 207 201 196 195 197
247 230 229 235 245 344 18 23 51 94 134 160 166 181 203 212 211 201 204 218 217 212 215 220 230 236 219 211 218 218 215 215 212 208 206 209 214 214 206 198 195 197
236 219 219 222 219 210 71 40 51 63 73 81 80 73 99 178 198 197 201 210 208 201 197 207 214 207 204 212 212 209 216 218 210 206 206 207 212 218 217 209 200 198
241 239 243 236 214 206 202 152 77 70 68 67 62 58 66 79 112 169 197 206 203 200 202 212 216 201 199 212 213 210 217 220 216 215 216 218 220 222 229 235 229 215
245 243 240 221 190 181 185 177 137 109 97 86 75 67 65 68 74 87 106 136 176 195 202 208 209 200 201 211 215 217 218 217 220 223 225 233 236 232 236 246 254 256
242 235 221 194 177 163 152 151 145 138 134 115 96 79 69 66 69 79 86 93 122 166 192 205 205 200 201 206 212 220 224 221 227 230 229 230 231 234 240 236 234 247
227 222 209 185 177 168 153 148 143 138 134 115 101 95 95 94 86 79 77 83 94 107 136 183 197 201 206 210 215 225 233 236 237 234 230 231 233 237 239 230 225 235
206 208 204 183 174 169 159 155 147 137 133 123 115 119 127 119 99 75 62 63 76 87 93 115 152 179 196 207 218 231 238 243 245 243 242 243 239 235 235 235 237 243